Regional Weather Roundup
Issued by NWS

Home | Current Version | Previous Version | Graphics & Text | Print | Product List | Glossary On
Versions: 1 2 3 4 5 6 7 8 9 10 11 12 13 14 15 16 17 18 19 20 21 22 23 24 25 26 27 28 29 30 31 32 33 34 35 36 37 38 39 40 41 42 43 44 45 46 47 48 49 50
000
ASUS45 KBOI 290710
RWRID
WEATHER ROUNDUP FOR IDAHO
NATIONAL WEATHER SERVICE BOISE ID
1200 AM MST THU JAN 29 2015

NOTE: "FAIR" INDICATES FEW OR NO CLOUDS BELOW 12000 FEET
WITH NO SIGNIFICANT WEATHER AND/OR OBSTRUCTIONS TO VISIBILITY

IDZ012-014-290800-
SOUTHWEST IDAHO


CITY           SKY/WX    TMP DP  RH WIND       PRES   REMARKS
BOISE          CLEAR     36  34  92 SE13      30.40R WCI  27
CALDWELL       CLEAR     32  25  74 SE7       30.41R WCI  26
MOUNTAIN HOME  CLEAR     32  31  96 E8        30.41R WCI  25
$$

IDZ016-017-290800-
SOUTHCENTRAL IDAHO


CITY           SKY/WX    TMP DP  RH WIND       PRES   REMARKS
BURLEY         CLOUDY    36  33  89 E9        30.40R WCI  29
JEROME         CLOUDY    33  32  96 NE10      30.41R WCI  25
TWIN FALLS     FOG       31  27  85 SE7       30.40R VSB 1/4 WCI  24
$$

IDZ019>023-290800-
SOUTHEAST IDAHO


CITY           SKY/WX    TMP DP  RH WIND       PRES   REMARKS
IDAHO FALLS    CLOUDY    35  33  92 NW5       30.43R WCI  31
POCATELLO      CLOUDY    35  35 100 NE5       30.42R FOG     WCI  31
REXBURG        FOG       33  33 100 NE6       30.42S VSB 1   WCI  28
$$

IDZ006-010-011-018-031-032-290800-
CENTRAL IDAHO MOUNTAINS


CITY           SKY/WX    TMP DP  RH WIND       PRES   REMARKS
MCCALL         CLEAR     23  20  88 CALM      30.35S
HAILEY         CLEAR     30  30 100 NW5       30.40R WCI  25
STANLEY          N/A     14  11  87 S3        30.40R
SALMON         PTCLDY    19  18  93 CALM      30.45R
CHALLIS        CLOUDY    31  30  96 CALM      30.42R
$$

IDZ002-004-006-007-026-290800-
NORTHERN IDAHO


CITY           SKY/WX    TMP DP  RH WIND       PRES   REMARKS
LEWISTON       FOG       36  35  96 CALM      30.43S VSB 1/4
LOWELL           N/A     34  32  92 CALM      30.51R
COEUR D`ALENE  CLOUDY    34  32  93 E10       30.44R VSB 1/2 WCI  26
MULLAN PASS    CLEAR     26  25  96 S5        30.36R WCI  20
$$



USA.gov is the U.S. government's official web portal to all federal, state and local government web resources and services.